Вернуться в каталог

HULIANWANG DIGUI-152

АктивенСвязьLEO
NORAD 67528·PAYLOAD·🇨🇳 China

Запущен Jan 19, 2026 с Wenchang Space Launch Site

Loading…

Ближайшие Пролёты (ближайшие 24 часа)

TLE

СвежийSource: Space-Track

Эпоха: Sep 14, 2026, 10:07 UTC

1 67528U 26013G   26257.42176616 -.00000107  00000-0  35731-4 0  9997
2 67528  50.0053  35.3553 0000837  84.7196 275.3772 13.29330959 31922

Отслеживайте HULIANWANG DIGUI-152 в реальном времени с AllMySat

Download on the App Store